Time,TemperatureF,DewpointF,PressureIn,WindDirection,WindDirectionDegrees,WindSpeedMPH,WindSpeedGustMPH,Humidity,HourlyPrecipIn,Conditions,Clouds,dailyrainin,SoftwareType,DateUTC
2013-09-13 00:00:00,73.1,69.3,29.82,NW,305,0.0,2.0,88,0.00,,CLR,0.00,VWS V14.01,2013-09-13 05:00:00,
2013-09-13 00:02:00,73.1,69.7,29.82,NW,305,0.0,1.0,89,0.00,,,0.00,VWS V14.01,2013-09-13 05:02:00,
2013-09-13 00:07:00,73.1,69.3,29.82,NW,305,0.0,1.0,88,0.00,,,0.00,VWS V14.01,2013-09-13 05:07:00,
2013-09-13 00:12:00,73.1,69.3,29.82,WNW,284,0.0,1.0,88,0.00,,,0.00,VWS V14.01,2013-09-13 05:12:00,
2013-09-13 00:17:00,73.1,69.0,29.82,WNW,284,0.0,1.0,87,0.00,,,0.00,VWS V14.01,2013-09-13 05:17:00,
2013-09-13 00:22:00,73.1,69.0,29.82,WNW,284,0.0,1.0,87,0.00,,,0.00,VWS V14.01,2013-09-13 05:22:00,
2013-09-13 00:27:00,73.0,68.9,29.82,WNW,284,0.0,1.0,87,0.00,,,0.00,VWS V14.01,2013-09-13 05:27:00,
2013-09-13 00:30:00,73.0,68.9,29.82,WNW,284,1.0,1.0,87,0.00,,CLR,0.00,VWS V14.01,2013-09-13 05:30:00,
2013-09-13 00:32:00,73.0,68.9,29.82,NW,309,0.0,2.0,87,0.00,,,0.00,VWS V14.01,2013-09-13 05:32:00,
2013-09-13 00:37:00,73.1,69.0,29.82,NW,309,1.0,2.0,87,0.00,,,0.00,VWS V14.01,2013-09-13 05:37:00,
2013-09-13 00:42:00,73.1,68.7,29.82,NW,314,0.0,2.0,86,0.00,,,0.00,VWS V14.01,2013-09-13 05:42:00,
2013-09-13 00:48:00,73.1,68.7,29.82,NW,325,0.0,2.0,86,0.00,,,0.00,VWS V14.01,2013-09-13 05:48:00,
2013-09-13 00:53:00,73.1,68.7,29.82,NW,315,0.0,3.0,86,0.00,,,0.00,VWS V14.01,2013-09-13 05:53:00,
2013-09-13 00:58:00,73.2,69.1,29.82,NW,315,0.0,3.0,87,0.00,,,0.00,VWS V14.01,2013-09-13 05:58:00,
2013-09-13 01:00:00,73.2,69.1,29.82,NW,315,0.0,3.0,87,0.00,,CLR,0.00,VWS V14.01,2013-09-13 06:00:00,
2013-09-13 01:03:00,73.1,68.7,29.82,NW,315,0.0,0.0,86,0.00,,,0.00,VWS V14.01,2013-09-13 06:03:00,
2013-09-13 01:08:00,73.1,68.7,29.82,NW,315,0.0,0.0,86,0.00,,,0.00,VWS V14.01,2013-09-13 06:08:00,
2013-09-13 01:13:00,73.0,68.6,29.82,NW,315,0.0,0.0,86,0.00,,,0.00,VWS V14.01,2013-09-13 06:13:00,
2013-09-13 01:18:00,73.0,68.2,29.83,NW,310,1.0,1.0,85,0.00,,,0.00,VWS V14.01,2013-09-13 06:18:00,
2013-09-13 01:23:00,73.0,68.6,29.83,NNW,346,0.0,2.0,86,0.00,,,0.00,VWS V14.01,2013-09-13 06:23:00,
2013-09-13 01:28:00,73.0,68.2,29.83,NE,34,0.0,2.0,85,0.00,,,0.00,VWS V14.01,2013-09-13 06:28:00,
2013-09-13 01:30:00,73.0,68.2,29.83,NE,34,0.0,2.0,85,0.00,,CLR,0.00,VWS V14.01,2013-09-13 06:30:00,
2013-09-13 01:33:00,73.0,68.2,29.83,NW,326,0.0,2.0,85,0.00,,,0.00,VWS V14.01,2013-09-13 06:33:00,
2013-09-13 01:38:00,73.0,68.2,29.83,WNW,289,1.0,3.0,85,0.00,,,0.00,VWS V14.01,2013-09-13 06:38:00,
2013-09-13 01:43:00,73.0,67.9,29.83,WNW,298,0.0,3.0,84,0.00,,OVC095,0.00,VWS V14.01,2013-09-13 06:43:00,
2013-09-13 01:48:00,73.0,67.9,29.84,NW,309,0.0,3.0,84,0.00,,OVC095,0.00,VWS V14.01,2013-09-13 06:48:00,
2013-09-13 01:54:00,73.0,67.9,29.84,NW,316,0.0,6.0,84,0.00,,OVC095,0.00,VWS V14.01,2013-09-13 06:54:00,
2013-09-13 01:59:00,72.9,67.1,29.84,WNW,297,2.0,6.0,82,0.00,,OVC095,0.00,VWS V14.01,2013-09-13 06:59:00,
2013-09-13 02:00:00,72.9,67.1,29.84,WNW,284,0.0,6.0,82,0.00,,CLR,0.00,VWS V14.01,2013-09-13 07:00:00,
2013-09-13 02:04:00,72.9,67.4,29.84,East,90,0.0,4.0,83,0.00,,OVC095,0.00,VWS V14.01,2013-09-13 07:04:00,
2013-09-13 02:09:00,72.7,66.5,29.84,NNE,26,0.0,5.0,81,0.00,,OVC095,0.00,VWS V14.01,2013-09-13 07:09:00,
2013-09-13 02:14:00,72.5,66.3,29.84,NNW,327,0.0,5.0,81,0.00,,OVC095,0.00,VWS V14.01,2013-09-13 07:14:00,
2013-09-13 02:19:00,72.3,65.4,29.84,North,11,0.0,5.0,79,0.00,,OVC095,0.00,VWS V14.01,2013-09-13 07:19:00,
2013-09-13 02:24:00,72.1,64.5,29.84,ENE,64,3.0,6.0,77,0.00,,OVC095,0.00,VWS V14.01,2013-09-13 07:24:00,
2013-09-13 02:29:00,72.0,64.0,29.84,NNW,347,0.0,7.0,76,0.00,,OVC095,0.00,VWS V14.01,2013-09-13 07:29:00,
2013-09-13 02:30:00,72.0,64.0,29.84,NNW,347,0.0,7.0,76,0.00,,CLR,0.00,VWS V14.01,2013-09-13 07:30:00,
2013-09-13 02:34:00,71.9,63.9,29.84,NNW,330,0.0,8.0,76,0.00,,OVC095,0.00,VWS V14.01,2013-09-13 07:34:00,
2013-09-13 02:39:00,71.7,63.0,29.84,East,80,0.0,8.0,74,0.00,,OVC095,0.00,VWS V14.01,2013-09-13 07:39:00,
2013-09-13 02:44:00,71.5,61.6,29.84,NNE,16,0.0,8.0,71,0.00,,OVC095,0.00,VWS V14.01,2013-09-13 07:44:00,
2013-09-13 02:49:00,71.4,61.1,29.84,ENE,68,5.0,8.0,70,0.00,,OVC095,0.00,VWS V14.01,2013-09-13 07:49:00,
2013-09-13 02:55:00,71.3,61.0,29.84,NNW,346,0.0,8.0,70,0.00,,OVC095,0.00,VWS V14.01,2013-09-13 07:55:00,
2013-09-13 03:00:00,71.1,60.0,29.84,NNE,18,0.0,3.0,68,0.00,,OVC095,0.00,VWS V14.01,2013-09-13 08:00:00,
2013-09-13 03:05:00,71.0,59.5,29.84,NNW,331,0.0,8.0,67,0.00,,OVC095,0.00,VWS V14.01,2013-09-13 08:05:00,
2013-09-13 03:10:00,70.9,59.8,29.84,SW,228,0.0,8.0,68,0.00,,OVC095,0.00,VWS V14.01,2013-09-13 08:10:00,
2013-09-13 03:15:00,70.8,59.3,29.84,NW,309,2.0,8.0,67,0.00,,OVC095,0.00,VWS V14.01,2013-09-13 08:15:00,
2013-09-13 03:20:00,70.7,58.8,29.84,NNE,14,3.0,8.0,66,0.00,,OVC095,0.00,VWS V14.01,2013-09-13 08:20:00,
2013-09-13 03:25:00,70.6,58.7,29.84,NE,56,3.0,8.0,66,0.00,,OVC095,0.00,VWS V14.01,2013-09-13 08:25:00,
2013-09-13 03:30:00,70.4,58.9,29.84,West,262,1.0,2.0,67,0.00,,OVC095,0.00,VWS V14.01,2013-09-13 08:30:00,
2013-09-13 03:35:00,70.3,58.4,29.84,ESE,109,0.0,7.0,66,0.00,,OVC095,0.00,VWS V14.01,2013-09-13 08:35:00,
2013-09-13 03:40:00,70.1,58.2,29.84,NNE,32,0.0,7.0,66,0.00,,OVC095,0.00,VWS V14.01,2013-09-13 08:40:00,
2013-09-13 03:45:00,70.0,58.5,29.84,North,360,6.0,7.0,67,0.00,,OVC095,0.00,VWS V14.01,2013-09-13 08:45:00,
2013-09-13 03:50:00,69.9,58.5,29.84,East,84,0.0,7.0,67,0.00,,OVC095,0.00,VWS V14.01,2013-09-13 08:50:00,
2013-09-13 03:56:00,69.8,58.8,29.84,WNW,286,1.0,7.0,68,0.00,,OVC095,0.00,VWS V14.01,2013-09-13 08:56:00,
2013-09-13 04:00:00,69.6,58.6,29.84,ESE,121,1.0,7.0,68,0.00,,CLR,0.00,VWS V14.01,2013-09-13 09:00:00,
2013-09-13 04:01:00,69.6,58.6,29.85,NNW,332,0.0,2.0,68,0.00,,OVC095,0.00,VWS V14.01,2013-09-13 09:01:00,
2013-09-13 04:06:00,69.4,58.4,29.85,NNE,18,0.0,4.0,68,0.00,,OVC095,0.00,VWS V14.01,2013-09-13 09:06:00,
2013-09-13 04:11:00,69.2,57.4,29.85,East,89,2.0,5.0,66,0.00,,OVC095,0.00,VWS V14.01,2013-09-13 09:11:00,
2013-09-13 04:16:00,69.0,57.6,29.85,NE,43,0.0,5.0,67,0.00,,OVC095,0.00,VWS V14.01,2013-09-13 09:16:00,
2013-09-13 04:21:00,68.8,57.4,29.85,West,279,0.0,5.0,67,0.00,,OVC095,0.00,VWS V14.01,2013-09-13 09:21:00,
2013-09-13 04:26:00,68.6,57.2,29.85,NE,38,0.0,5.0,67,0.00,,OVC095,0.00,VWS V14.01,2013-09-13 09:26:00,
2013-09-13 04:30:00,68.5,57.1,29.85,NE,43,0.0,5.0,67,0.00,,CLR,0.00,VWS V14.01,2013-09-13 09:30:00,
2013-09-13 04:31:00,68.4,57.0,29.85,SW,236,0.0,3.0,67,0.00,,OVC095,0.00,VWS V14.01,2013-09-13 09:31:00,
2013-09-13 04:36:00,68.3,56.9,29.85,East,98,0.0,3.0,67,0.00,,OVC095,0.00,VWS V14.01,2013-09-13 09:36:00,
2013-09-13 04:41:00,68.1,56.3,29.85,East,98,0.0,3.0,66,0.00,,OVC095,0.00,VWS V14.01,2013-09-13 09:41:00,
2013-09-13 04:46:00,68.0,57.1,29.85,NE,41,0.0,3.0,68,0.00,,OVC095,0.00,VWS V14.01,2013-09-13 09:46:00,
2013-09-13 04:51:00,67.8,56.5,29.85,West,281,0.0,3.0,67,0.00,,OVC095,0.00,VWS V14.01,2013-09-13 09:51:00,
2013-09-13 04:57:00,67.7,56.4,29.85,ENE,75,0.0,3.0,67,0.00,,OVC095,0.00,VWS V14.01,2013-09-13 09:57:00,
2013-09-13 05:00:00,67.6,56.3,29.85,North,355,0.0,3.0,67,0.00,,CLR,0.00,VWS V14.01,2013-09-13 10:00:00,
2013-09-13 05:02:00,67.6,56.3,29.85,NNE,32,0.0,1.0,67,0.00,,OVC095,0.00,VWS V14.01,2013-09-13 10:02:00,
2013-09-13 05:07:00,67.4,56.1,29.85,WNW,290,1.0,4.0,67,0.00,,OVC095,0.00,VWS V14.01,2013-09-13 10:07:00,
2013-09-13 05:12:00,67.4,56.5,29.85,WNW,293,0.0,4.0,68,0.00,,OVC095,0.00,VWS V14.01,2013-09-13 10:12:00,
2013-09-13 05:17:00,67.2,57.1,29.85,NW,309,0.0,4.0,70,0.00,,OVC095,0.00,VWS V14.01,2013-09-13 10:17:00,
2013-09-13 05:22:00,67.0,56.1,29.85,NE,47,0.0,4.0,68,0.00,,OVC095,0.00,VWS V14.01,2013-09-13 10:22:00,
2013-09-13 05:27:00,66.9,56.4,29.85,NW,316,2.0,4.0,69,0.00,,OVC095,0.00,VWS V14.01,2013-09-13 10:27:00,
2013-09-13 05:30:00,66.8,56.3,29.86,ESE,117,1.0,4.0,69,0.00,,CLR,0.00,VWS V14.01,2013-09-13 10:30:00,
2013-09-13 05:32:00,66.7,56.6,29.86,WSW,243,0.0,1.0,70,0.00,,OVC095,0.00,VWS V14.01,2013-09-13 10:32:00,
2013-09-13 05:37:00,66.5,56.0,29.86,East,94,0.0,2.0,69,0.00,,OVC095,0.00,VWS V14.01,2013-09-13 10:37:00,
2013-09-13 05:42:00,66.3,56.6,29.86,ENE,60,0.0,2.0,71,0.00,,OVC095,0.00,VWS V14.01,2013-09-13 10:42:00,
2013-09-13 05:47:00,66.2,56.1,29.86,NE,55,0.0,2.0,70,0.00,,OVC095,0.00,VWS V14.01,2013-09-13 10:47:00,
2013-09-13 05:52:00,66.0,56.0,29.86,NE,36,0.0,2.0,70,0.00,,OVC095,0.00,VWS V14.01,2013-09-13 10:52:00,
2013-09-13 05:57:00,65.8,56.2,29.86,NW,304,0.0,2.0,71,0.00,,OVC095,0.00,VWS V14.01,2013-09-13 10:57:00,
2013-09-13 06:00:00,65.8,56.2,29.86,NW,323,0.0,2.0,71,0.00,,CLR,0.00,VWS V14.01,2013-09-13 11:00:00,
2013-09-13 06:03:00,65.7,56.0,29.86,NW,306,0.0,1.0,71,0.00,,OVC095,0.00,VWS V14.01,2013-09-13 11:03:00,
2013-09-13 06:08:00,65.5,56.2,29.87,NW,305,0.0,1.0,72,0.00,,OVC095,0.00,VWS V14.01,2013-09-13 11:08:00,
2013-09-13 06:13:00,65.3,55.7,29.86,NW,306,1.0,1.0,71,0.00,,OVC095,0.00,VWS V14.01,2013-09-13 11:13:00,
2013-09-13 06:18:00,65.2,56.3,29.86,NW,309,0.0,1.0,73,0.00,,OVC095,0.00,VWS V14.01,2013-09-13 11:18:00,
2013-09-13 06:23:00,65.0,55.8,29.87,NW,309,0.0,1.0,72,0.00,,OVC095,0.00,VWS V14.01,2013-09-13 11:23:00,
2013-09-13 06:28:00,64.9,55.7,29.87,NNW,335,0.0,1.0,72,0.00,,OVC095,0.00,VWS V14.01,2013-09-13 11:28:00,
2013-09-13 06:30:00,64.9,56.0,29.87,NNW,335,0.0,1.0,73,0.00,,CLR,0.00,VWS V14.01,2013-09-13 11:30:00,
2013-09-13 06:33:00,64.8,56.0,29.87,NNW,335,0.0,0.0,73,0.00,,OVC095,0.00,VWS V14.01,2013-09-13 11:33:00,
2013-09-13 06:38:00,64.7,55.1,29.87,NE,46,0.0,2.0,71,0.00,,OVC095,0.00,VWS V14.01,2013-09-13 11:38:00,
2013-09-13 06:43:00,64.6,55.0,29.87,NW,315,0.0,3.0,71,0.00,,OVC095,0.00,VWS V14.01,2013-09-13 11:43:00,
2013-09-13 06:48:00,64.5,55.7,29.87,NW,315,0.0,3.0,73,0.00,,OVC095,0.00,VWS V14.01,2013-09-13 11:48:00,
2013-09-13 06:53:00,64.4,55.6,29.87,North,360,0.0,3.0,73,0.00,,OVC095,0.00,VWS V14.01,2013-09-13 11:53:00,
2013-09-13 06:58:00,64.3,55.5,29.87,North,355,0.0,3.0,73,0.00,,OVC095,0.00,VWS V14.01,2013-09-13 11:58:00,
2013-09-13 07:00:00,64.3,55.5,29.87,North,355,0.0,3.0,73,0.00,,CLR,0.00,VWS V14.01,2013-09-13 12:00:00,
2013-09-13 07:04:00,64.2,54.6,29.88,WNW,301,0.0,1.0,71,0.00,,OVC095,0.00,VWS V14.01,2013-09-13 12:04:00,
2013-09-13 07:09:00,64.2,55.4,29.88,WNW,301,0.0,1.0,73,0.00,,OVC095,0.00,VWS V14.01,2013-09-13 12:09:00,
2013-09-13 07:14:00,64.1,54.9,29.88,NNW,344,0.0,1.0,72,0.00,,OVC095,0.00,VWS V14.01,2013-09-13 12:14:00,
2013-09-13 07:19:00,64.1,54.9,29.88,WNW,302,0.0,1.0,72,0.00,,OVC095,0.00,VWS V14.01,2013-09-13 12:19:00,
2013-09-13 07:24:00,64.0,54.8,29.88,NW,315,1.0,2.0,72,0.00,,OVC095,0.00,VWS V14.01,2013-09-13 12:24:00,
2013-09-13 07:29:00,63.9,54.7,29.88,NW,316,0.0,2.0,72,0.00,,OVC095,0.00,VWS V14.01,2013-09-13 12:29:00,
2013-09-13 07:30:00,63.9,54.7,29.88,NW,316,0.0,2.0,72,0.00,,CLR,0.00,VWS V14.01,2013-09-13 12:30:00,
2013-09-13 07:34:00,63.8,55.4,29.88,NW,325,1.0,2.0,74,0.00,,OVC095,0.00,VWS V14.01,2013-09-13 12:34:00,
2013-09-13 07:39:00,63.7,54.9,29.88,WNW,301,0.0,2.0,73,0.00,,OVC095,0.00,VWS V14.01,2013-09-13 12:39:00,
2013-09-13 07:44:00,63.6,55.2,29.88,NNW,327,0.0,2.0,74,0.00,,OVC095,0.00,VWS V14.01,2013-09-13 12:44:00,
2013-09-13 07:49:00,63.6,54.8,29.88,NW,316,0.0,2.0,73,0.00,,OVC095,0.00,VWS V14.01,2013-09-13 12:49:00,
2013-09-13 07:54:00,63.6,54.8,29.88,WNW,294,0.0,2.0,73,0.00,,OVC095,0.00,VWS V14.01,2013-09-13 12:54:00,
2013-09-13 07:59:00,63.7,54.9,29.88,NNW,340,0.0,0.0,73,0.00,,OVC095,0.00,VWS V14.01,2013-09-13 12:59:00,
2013-09-13 08:00:00,63.7,55.6,29.88,NE,51,0.0,2.0,75,0.00,,CLR,0.00,VWS V14.01,2013-09-13 13:00:00,
2013-09-13 08:05:00,63.8,54.6,29.88,NW,326,0.0,1.0,72,0.00,,OVC095,0.00,VWS V14.01,2013-09-13 13:05:00,
2013-09-13 08:10:00,63.9,54.7,29.88,ESE,104,0.0,3.0,72,0.00,,OVC095,0.00,VWS V14.01,2013-09-13 13:10:00,
2013-09-13 08:15:00,64.0,55.6,29.88,West,275,0.0,3.0,74,0.00,,OVC095,0.00,VWS V14.01,2013-09-13 13:15:00,
2013-09-13 08:20:00,63.9,54.7,29.88,NE,36,0.0,3.0,72,0.00,,OVC095,0.00,VWS V14.01,2013-09-13 13:20:00,
2013-09-13 08:25:00,64.0,55.6,29.88,WNW,284,0.0,3.0,74,0.00,,OVC095,0.00,VWS V14.01,2013-09-13 13:25:00,
2013-09-13 08:30:00,64.0,54.8,29.88,WNW,288,0.0,0.0,72,0.00,,OVC095,0.00,VWS V14.01,2013-09-13 13:30:00,
2013-09-13 08:35:00,64.0,55.6,29.88,NNW,340,0.0,1.0,74,0.00,,OVC095,0.00,VWS V14.01,2013-09-13 13:35:00,
2013-09-13 08:40:00,64.0,55.2,29.89,NNW,338,0.0,2.0,73,0.00,,OVC095,0.00,VWS V14.01,2013-09-13 13:40:00,
2013-09-13 08:45:00,64.1,55.3,29.89,WNW,300,2.0,3.0,73,0.00,,OVC095,0.00,VWS V14.01,2013-09-13 13:45:00,
2013-09-13 08:50:00,64.1,55.7,29.89,NW,314,1.0,4.0,74,0.00,,OVC095,0.00,VWS V14.01,2013-09-13 13:50:00,
2013-09-13 08:55:00,64.3,55.5,29.89,NNW,338,0.0,4.0,73,0.00,,OVC095,0.00,VWS V14.01,2013-09-13 13:55:00,
2013-09-13 09:00:00,64.5,56.0,29.89,West,265,0.0,2.0,74,0.00,,OVC095,0.00,VWS V14.01,2013-09-13 14:00:00,
2013-09-13 09:06:00,64.7,55.9,29.90,WNW,302,0.0,3.0,73,0.00,,OVC095,0.00,VWS V14.01,2013-09-13 14:06:00,
2013-09-13 09:11:00,64.9,56.0,29.89,WNW,303,0.0,4.0,73,0.00,,OVC095,0.00,VWS V14.01,2013-09-13 14:11:00,
2013-09-13 09:16:00,65.2,56.0,29.90,NW,315,1.0,4.0,72,0.00,,OVC095,0.00,VWS V14.01,2013-09-13 14:16:00,
2013-09-13 09:21:00,65.3,55.3,29.90,NNE,30,0.0,4.0,70,0.00,,OVC095,0.00,VWS V14.01,2013-09-13 14:21:00,
2013-09-13 09:26:00,65.4,56.2,29.90,NW,324,1.0,4.0,72,0.00,,OVC095,0.00,VWS V14.01,2013-09-13 14:26:00,
2013-09-13 09:30:00,65.5,56.2,29.90,NW,304,0.0,4.0,72,0.00,,CLR,0.00,VWS V14.01,2013-09-13 14:30:00,
2013-09-13 09:31:00,65.5,55.9,29.90,WNW,292,0.0,3.0,71,0.00,,OVC095,0.00,VWS V14.01,2013-09-13 14:31:00,
2013-09-13 09:36:00,65.6,56.0,29.90,North,355,0.0,4.0,71,0.00,,OVC095,0.00,VWS V14.01,2013-09-13 14:36:00,
2013-09-13 09:41:00,65.7,56.4,29.90,WNW,299,0.0,4.0,72,0.00,,OVC095,0.00,VWS V14.01,2013-09-13 14:41:00,
2013-09-13 09:46:00,65.8,55.8,29.90,NW,309,0.0,4.0,70,0.00,,OVC095,0.00,VWS V14.01,2013-09-13 14:46:00,
2013-09-13 09:51:00,65.8,55.8,29.90,WNW,296,1.0,4.0,70,0.00,,OVC095,0.00,VWS V14.01,2013-09-13 14:51:00,
2013-09-13 09:56:00,65.9,56.2,29.90,East,91,1.0,4.0,71,0.00,,OVC095,0.00,VWS V14.01,2013-09-13 14:56:00,
2013-09-13 10:00:00,65.9,56.6,29.90,NE,38,0.0,4.0,72,0.00,,CLR,0.00,VWS V14.01,2013-09-13 15:00:00,
2013-09-13 10:01:00,66.0,56.3,29.90,NW,319,0.0,1.0,71,0.00,,OVC095,0.00,VWS V14.01,2013-09-13 15:01:00,
2013-09-13 10:06:00,66.1,55.7,29.90,North,355,0.0,2.0,69,0.00,,OVC095,0.00,VWS V14.01,2013-09-13 15:06:00,
2013-09-13 10:12:00,66.2,56.1,29.90,NNW,331,0.0,3.0,70,0.00,,OVC095,0.00,VWS V14.01,2013-09-13 15:12:00,
2013-09-13 10:17:00,66.4,56.3,29.90,NNW,340,0.0,3.0,70,0.00,,OVC095,0.00,VWS V14.01,2013-09-13 15:17:00,
2013-09-13 10:22:00,66.7,56.2,29.91,NNW,336,0.0,3.0,69,0.00,,CLR,0.00,VWS V14.01,2013-09-13 15:22:00,
2013-09-13 10:27:00,67.0,56.1,29.90,NW,311,1.0,3.0,68,0.00,,CLR,0.00,VWS V14.01,2013-09-13 15:27:00,
2013-09-13 10:30:00,67.1,56.2,29.90,NW,304,2.0,3.0,68,0.00,,CLR,0.00,VWS V14.01,2013-09-13 15:30:00,
2013-09-13 10:32:00,67.2,55.9,29.91,NW,317,0.0,2.0,67,0.00,,CLR,0.00,VWS V14.01,2013-09-13 15:32:00,
2013-09-13 10:37:00,67.4,56.9,29.90,WNW,300,0.0,2.0,69,0.00,,CLR,0.00,VWS V14.01,2013-09-13 15:37:00,
2013-09-13 10:42:00,67.5,57.4,29.90,NNW,342,0.0,5.0,70,0.00,,CLR,0.00,VWS V14.01,2013-09-13 15:42:00,
2013-09-13 10:47:00,67.7,57.6,29.90,NW,323,2.0,5.0,70,0.00,,CLR,0.00,VWS V14.01,2013-09-13 15:47:00,
2013-09-13 10:52:00,67.9,57.0,29.91,NNW,333,0.0,5.0,68,0.00,,CLR,0.00,VWS V14.01,2013-09-13 15:52:00,
2013-09-13 10:57:00,68.1,58.0,29.91,ENE,57,1.0,5.0,70,0.00,,CLR,0.00,VWS V14.01,2013-09-13 15:57:00,
2013-09-13 11:00:00,68.2,58.0,29.91,NNW,335,0.0,5.0,70,0.00,,CLR,0.00,VWS V14.01,2013-09-13 16:00:00,
2013-09-13 11:02:00,68.4,56.6,29.91,North,355,0.0,5.0,66,0.00,,CLR,0.00,VWS V14.01,2013-09-13 16:02:00,
2013-09-13 11:08:00,68.6,57.6,29.91,NW,326,0.0,5.0,68,0.00,,CLR,0.00,VWS V14.01,2013-09-13 16:08:00,
2013-09-13 11:13:00,68.7,57.7,29.91,WNW,298,1.0,5.0,68,0.00,,CLR,0.00,VWS V14.01,2013-09-13 16:13:00,
2013-09-13 11:18:00,68.9,57.9,29.90,WNW,284,0.0,5.0,68,0.00,,CLR,0.00,VWS V14.01,2013-09-13 16:18:00,
2013-09-13 11:23:00,69.0,57.2,29.90,NW,323,0.0,5.0,66,0.00,,CLR,0.00,VWS V14.01,2013-09-13 16:23:00,
2013-09-13 11:28:00,69.2,57.4,29.90,West,279,4.0,5.0,66,0.00,,CLR,0.00,VWS V14.01,2013-09-13 16:28:00,
2013-09-13 11:30:00,69.2,57.4,29.90,NW,317,0.0,5.0,66,0.00,,CLR,0.00,VWS V14.01,2013-09-13 16:30:00,
2013-09-13 11:33:00,69.4,58.0,29.90,NW,311,0.0,1.0,67,0.00,,CLR,0.00,VWS V14.01,2013-09-13 16:33:00,
2013-09-13 11:38:00,69.4,57.1,29.90,NNW,330,1.0,4.0,65,0.00,,CLR,0.00,VWS V14.01,2013-09-13 16:38:00,
2013-09-13 11:43:00,69.5,57.7,29.90,NW,315,3.0,4.0,66,0.00,,CLR,0.00,VWS V14.01,2013-09-13 16:43:00,
2013-09-13 11:48:00,69.5,57.7,29.90,NW,322,1.0,4.0,66,0.00,,CLR,0.00,VWS V14.01,2013-09-13 16:48:00,
2013-09-13 11:53:00,69.5,57.2,29.89,NW,304,0.0,4.0,65,0.00,,CLR,0.00,VWS V14.01,2013-09-13 16:53:00,
2013-09-13 11:58:00,69.6,58.2,29.89,WNW,289,0.0,4.0,67,0.00,,CLR,0.00,VWS V14.01,2013-09-13 16:58:00,
2013-09-13 12:00:00,69.6,59.0,29.89,WNW,289,0.0,4.0,69,0.00,,CLR,0.00,VWS V14.01,2013-09-13 17:00:00,
2013-09-13 12:03:00,69.7,58.7,29.89,NNW,330,0.0,0.0,68,0.00,,CLR,0.00,VWS V14.01,2013-09-13 17:03:00,
2013-09-13 12:08:00,69.9,58.0,29.89,NNW,334,0.0,0.0,66,0.00,,CLR,0.00,VWS V14.01,2013-09-13 17:08:00,
2013-09-13 12:14:00,70.1,57.8,29.88,NW,323,0.0,2.0,65,0.00,,CLR,0.00,VWS V14.01,2013-09-13 17:14:00,
2013-09-13 12:19:00,70.2,57.9,29.88,North,5,2.0,2.0,65,0.00,,CLR,0.00,VWS V14.01,2013-09-13 17:19:00,
2013-09-13 12:24:00,70.3,58.0,29.88,North,351,0.0,2.0,65,0.00,,CLR,0.00,VWS V14.01,2013-09-13 17:24:00,
2013-09-13 12:29:00,70.4,58.1,29.88,WNW,288,0.0,2.0,65,0.00,,CLR,0.00,VWS V14.01,2013-09-13 17:29:00,
2013-09-13 12:30:00,70.4,58.1,29.88,WNW,288,0.0,2.0,65,0.00,,CLR,0.00,VWS V14.01,2013-09-13 17:30:00,
2013-09-13 12:34:00,70.5,59.4,29.88,NNW,333,0.0,1.0,68,0.00,,CLR,0.00,VWS V14.01,2013-09-13 17:34:00,
2013-09-13 12:39:00,70.7,58.8,29.88,NNW,333,0.0,1.0,66,0.00,,CLR,0.00,VWS V14.01,2013-09-13 17:39:00,
2013-09-13 12:44:00,70.9,57.7,29.87,NNW,327,0.0,2.0,63,0.00,,CLR,0.00,VWS V14.01,2013-09-13 17:44:00,
2013-09-13 12:49:00,71.2,58.0,29.87,NNW,327,0.0,2.0,63,0.00,,CLR,0.00,VWS V14.01,2013-09-13 17:49:00,
2013-09-13 12:54:00,71.5,57.4,29.87,WNW,288,0.0,3.0,61,0.00,,CLR,0.00,VWS V14.01,2013-09-13 17:54:00,
2013-09-13 12:59:00,71.9,57.7,29.87,WNW,298,0.0,0.0,61,0.00,,CLR,0.00,VWS V14.01,2013-09-13 17:59:00,
2013-09-13 13:00:00,71.8,57.6,29.87,WNW,298,0.0,3.0,61,0.00,,CLR,0.00,VWS V14.01,2013-09-13 18:00:00,
2013-09-13 13:04:00,72.5,58.3,29.86,WNW,303,3.0,3.0,61,0.00,,CLR,0.00,VWS V14.01,2013-09-13 18:04:00,
2013-09-13 13:09:00,73.0,59.2,29.86,NW,304,0.0,3.0,62,0.00,,CLR,0.00,VWS V14.01,2013-09-13 18:09:00,
2013-09-13 13:15:00,73.3,57.7,29.86,SW,214,0.0,3.0,58,0.00,,CLR,0.00,VWS V14.01,2013-09-13 18:15:00,
2013-09-13 13:20:00,73.7,57.0,29.86,NNW,329,1.0,3.0,56,0.00,,CLR,0.00,VWS V14.01,2013-09-13 18:20:00,
2013-09-13 13:25:00,73.8,56.1,29.86,NW,309,2.0,3.0,54,0.00,,CLR,0.00,VWS V14.01,2013-09-13 18:25:00,
2013-09-13 13:30:00,73.7,58.0,29.85,NNE,17,0.0,0.0,58,0.00,,CLR,0.00,VWS V14.01,2013-09-13 18:30:00,
2013-09-13 13:35:00,73.8,58.6,29.85,NW,312,0.0,2.0,59,0.00,,CLR,0.00,VWS V14.01,2013-09-13 18:35:00,
2013-09-13 13:40:00,73.7,57.5,29.85,NNW,332,3.0,4.0,57,0.00,,CLR,0.00,VWS V14.01,2013-09-13 18:40:00,
2013-09-13 13:45:00,73.7,57.0,29.85,NW,316,0.0,4.0,56,0.00,,CLR,0.00,VWS V14.01,2013-09-13 18:45:00,
2013-09-13 13:50:00,73.8,58.1,29.84,NNE,18,0.0,4.0,58,0.00,,CLR,0.00,VWS V14.01,2013-09-13 18:50:00,
2013-09-13 13:55:00,74.0,58.8,29.85,WNW,296,0.0,4.0,59,0.00,,CLR,0.00,VWS V14.01,2013-09-13 18:55:00,
2013-09-13 14:00:00,73.9,56.7,29.84,NW,319,0.0,0.0,55,0.00,,CLR,0.00,VWS V14.01,2013-09-13 19:00:00,
2013-09-13 14:05:00,73.8,59.1,29.84,NW,319,0.0,0.0,60,0.00,,CLR,0.00,VWS V14.01,2013-09-13 19:05:00,
2013-09-13 14:10:00,73.9,57.2,29.84,WNW,298,0.0,4.0,56,0.00,,CLR,0.00,VWS V14.01,2013-09-13 19:10:00,
2013-09-13 14:15:00,74.2,57.5,29.84,WNW,285,0.0,4.0,56,0.00,,CLR,0.00,VWS V14.01,2013-09-13 19:15:00,
2013-09-13 14:21:00,74.4,57.2,29.83,WNW,302,1.0,4.0,55,0.00,,CLR,0.00,VWS V14.01,2013-09-13 19:21:00,
2013-09-13 14:26:00,74.7,58.5,29.83,NW,310,3.0,4.0,57,0.00,,CLR,0.00,VWS V14.01,2013-09-13 19:26:00,
2013-09-13 14:30:00,74.9,60.1,29.83,WNW,295,0.0,4.0,60,0.00,,CLR,0.00,VWS V14.01,2013-09-13 19:30:00,
2013-09-13 14:31:00,74.9,58.2,29.83,WNW,295,0.0,0.0,56,0.00,,CLR,0.00,VWS V14.01,2013-09-13 19:31:00,
2013-09-13 14:36:00,75.2,56.9,29.83,WNW,284,0.0,2.0,53,0.00,,CLR,0.00,VWS V14.01,2013-09-13 19:36:00,
2013-09-13 14:41:00,75.5,58.7,29.83,NNE,14,1.0,2.0,56,0.00,,CLR,0.00,VWS V14.01,2013-09-13 19:41:00,
2013-09-13 14:46:00,75.8,56.9,29.83,NW,311,1.0,2.0,52,0.00,,CLR,0.00,VWS V14.01,2013-09-13 19:46:00,
2013-09-13 14:51:00,76.2,57.3,29.83,NNW,340,4.0,5.0,52,0.00,,CLR,0.00,VWS V14.01,2013-09-13 19:51:00,
2013-09-13 14:56:00,76.4,59.6,29.83,SSW,194,0.0,7.0,56,0.00,,CLR,0.00,VWS V14.01,2013-09-13 19:56:00,
2013-09-13 15:00:00,76.4,59.1,29.83,ENE,78,0.0,7.0,55,0.00,,CLR,0.00,VWS V14.01,2013-09-13 20:00:00,
2013-09-13 15:01:00,76.4,60.1,29.83,ENE,59,0.0,0.0,57,0.00,,CLR,0.00,VWS V14.01,2013-09-13 20:01:00,
2013-09-13 15:06:00,76.3,59.0,29.83,NNE,13,0.0,5.0,55,0.00,,CLR,0.00,VWS V14.01,2013-09-13 20:06:00,
2013-09-13 15:11:00,76.3,57.4,29.83,NE,47,1.0,5.0,52,0.00,,CLR,0.00,VWS V14.01,2013-09-13 20:11:00,
2013-09-13 15:16:00,76.3,58.5,29.83,WNW,302,0.0,5.0,54,0.00,,CLR,0.00,VWS V14.01,2013-09-13 20:16:00,
2013-09-13 15:22:00,76.4,57.5,29.83,NW,317,1.0,5.0,52,0.00,,CLR,0.00,VWS V14.01,2013-09-13 20:22:00,
2013-09-13 15:27:00,76.4,55.8,29.83,East,92,1.0,5.0,49,0.00,,CLR,0.00,VWS V14.01,2013-09-13 20:27:00,
2013-09-13 15:30:00,76.4,57.0,29.83,NW,309,0.0,5.0,51,0.00,,CLR,0.00,VWS V14.01,2013-09-13 20:30:00,
2013-09-13 15:32:00,76.4,58.0,29.83,NW,312,4.0,4.0,53,0.00,,CLR,0.00,VWS V14.01,2013-09-13 20:32:00,
2013-09-13 15:37:00,76.1,55.0,29.83,NE,46,1.0,4.0,48,0.00,,CLR,0.00,VWS V14.01,2013-09-13 20:37:00,
2013-09-13 15:42:00,76.1,55.6,29.83,NNW,339,0.0,4.0,49,0.00,,CLR,0.00,VWS V14.01,2013-09-13 20:42:00,
2013-09-13 15:47:00,75.8,54.2,29.82,North,5,0.0,4.0,47,0.00,,CLR,0.00,VWS V14.01,2013-09-13 20:47:00,
2013-09-13 15:52:00,75.8,56.4,29.82,WNW,296,0.0,4.0,51,0.00,,CLR,0.00,VWS V14.01,2013-09-13 20:52:00,
2013-09-13 15:57:00,75.7,57.4,29.82,NNW,327,0.0,4.0,53,0.00,,CLR,0.00,VWS V14.01,2013-09-13 20:57:00,
2013-09-13 16:00:00,75.6,57.3,29.82,NW,319,0.0,4.0,53,0.00,,CLR,0.00,VWS V14.01,2013-09-13 21:00:00,
2013-09-13 16:02:00,75.4,55.5,29.82,NW,323,0.0,2.0,50,0.00,,CLR,0.00,VWS V14.01,2013-09-13 21:02:00,
2013-09-13 16:07:00,75.3,55.4,29.82,ENE,74,0.0,2.0,50,0.00,,CLR,0.00,VWS V14.01,2013-09-13 21:07:00,
2013-09-13 16:12:00,75.3,57.0,29.82,NE,49,0.0,3.0,53,0.00,,CLR,0.00,VWS V14.01,2013-09-13 21:12:00,
2013-09-13 16:17:00,75.4,59.1,29.82,WNW,303,0.0,3.0,57,0.00,,CLR,0.00,VWS V14.01,2013-09-13 21:17:00,
2013-09-13 16:22:00,75.4,57.6,29.81,East,86,0.0,3.0,54,0.00,,CLR,0.00,VWS V14.01,2013-09-13 21:22:00,
2013-09-13 16:28:00,75.3,56.5,29.81,NW,304,1.0,3.0,52,0.00,,CLR,0.00,VWS V14.01,2013-09-13 21:28:00,
2013-09-13 16:30:00,75.3,55.9,29.81,NNE,17,0.0,3.0,51,0.00,,CLR,0.00,VWS V14.01,2013-09-13 21:30:00,
2013-09-13 16:33:00,75.4,57.6,29.82,NE,56,0.0,1.0,54,0.00,,CLR,0.00,VWS V14.01,2013-09-13 21:33:00,
2013-09-13 16:38:00,75.3,55.9,29.82,NNW,335,0.0,2.0,51,0.00,,CLR,0.00,VWS V14.01,2013-09-13 21:38:00,
2013-09-13 16:43:00,75.1,57.3,29.81,WNW,283,0.0,2.0,54,0.00,,CLR,0.00,VWS V14.01,2013-09-13 21:43:00,
2013-09-13 16:48:00,74.8,57.1,29.81,East,84,0.0,2.0,54,0.00,,CLR,0.00,VWS V14.01,2013-09-13 21:48:00,
2013-09-13 16:53:00,74.6,56.9,29.81,ENE,73,0.0,2.0,54,0.00,,CLR,0.00,VWS V14.01,2013-09-13 21:53:00,
2013-09-13 16:58:00,74.4,56.7,29.81,ENE,73,0.0,2.0,54,0.00,,CLR,0.00,VWS V14.01,2013-09-13 21:58:00,
2013-09-13 17:00:00,74.3,57.1,29.81,ENE,73,0.0,2.0,55,0.00,,CLR,0.00,VWS V14.01,2013-09-13 22:00:00,
2013-09-13 17:03:00,74.2,57.5,29.81,ENE,73,0.0,0.0,56,0.00,,CLR,0.00,VWS V14.01,2013-09-13 22:03:00,
2013-09-13 17:08:00,74.1,57.4,29.81,ENE,73,0.0,0.0,56,0.00,,CLR,0.00,VWS V14.01,2013-09-13 22:08:00,
2013-09-13 17:13:00,74.0,57.8,29.81,ENE,73,0.0,0.0,57,0.00,,CLR,0.00,VWS V14.01,2013-09-13 22:13:00,
2013-09-13 17:18:00,73.8,57.1,29.81,ENE,77,0.0,0.0,56,0.00,,CLR,0.00,VWS V14.01,2013-09-13 22:18:00,
2013-09-13 17:23:00,73.7,57.0,29.80,NW,319,0.0,1.0,56,0.00,,CLR,0.00,VWS V14.01,2013-09-13 22:23:00,
2013-09-13 17:28:00,73.6,57.9,29.81,NE,50,0.0,1.0,58,0.00,,CLR,0.00,VWS V14.01,2013-09-13 22:28:00,
2013-09-13 17:30:00,73.6,57.9,29.81,NE,50,0.0,1.0,58,0.00,,CLR,0.00,VWS V14.01,2013-09-13 22:30:00,
2013-09-13 17:34:00,73.4,58.7,29.81,NE,50,0.0,0.0,60,0.00,,CLR,0.00,VWS V14.01,2013-09-13 22:34:00,
2013-09-13 17:39:00,73.3,59.0,29.81,NE,50,0.0,0.0,61,0.00,,CLR,0.00,VWS V14.01,2013-09-13 22:39:00,
2013-09-13 17:44:00,73.1,58.9,29.81,NW,315,0.0,1.0,61,0.00,,CLR,0.00,VWS V14.01,2013-09-13 22:44:00,
2013-09-13 17:49:00,72.9,59.1,29.81,North,360,0.0,1.0,62,0.00,,CLR,0.00,VWS V14.01,2013-09-13 22:49:00,
2013-09-13 17:54:00,72.8,58.1,29.81,NE,49,0.0,1.0,60,0.00,,CLR,0.00,VWS V14.01,2013-09-13 22:54:00,
2013-09-13 17:59:00,72.6,58.8,29.81,ENE,59,0.0,1.0,62,0.00,,CLR,0.00,VWS V14.01,2013-09-13 22:59:00,
2013-09-13 18:00:00,72.6,58.8,29.81,ENE,59,0.0,1.0,62,0.00,,CLR,0.00,VWS V14.01,2013-09-13 23:00:00,
2013-09-13 18:04:00,72.4,59.1,29.81,ENE,59,0.0,0.0,63,0.00,,CLR,0.00,VWS V14.01,2013-09-13 23:04:00,
2013-09-13 18:09:00,72.3,59.0,29.81,NNE,21,1.0,2.0,63,0.00,,CLR,0.00,VWS V14.01,2013-09-13 23:09:00,
2013-09-13 18:14:00,72.1,57.9,29.81,NE,53,1.0,2.0,61,0.00,,CLR,0.00,VWS V14.01,2013-09-13 23:14:00,
2013-09-13 18:19:00,72.0,58.7,29.81,East,80,0.0,2.0,63,0.00,,CLR,0.00,VWS V14.01,2013-09-13 23:19:00,
2013-09-13 18:24:00,71.8,58.1,29.81,NNE,33,0.0,2.0,62,0.00,,CLR,0.00,VWS V14.01,2013-09-13 23:24:00,
2013-09-13 18:29:00,71.7,58.0,29.81,NNE,31,0.0,0.0,62,0.00,,CLR,0.00,VWS V14.01,2013-09-13 23:29:00,
2013-09-13 18:30:00,71.7,58.0,29.81,NNE,31,0.0,2.0,62,0.00,,CLR,0.00,VWS V14.01,2013-09-13 23:30:00,
2013-09-13 18:35:00,71.4,57.7,29.81,ESE,118,0.0,1.0,62,0.00,,CLR,0.00,VWS V14.01,2013-09-13 23:35:00,
2013-09-13 18:40:00,71.2,58.0,29.81,East,86,0.0,1.0,63,0.00,,CLR,0.00,VWS V14.01,2013-09-13 23:40:00,
2013-09-13 18:45:00,71.0,57.8,29.81,ENE,58,0.0,1.0,63,0.00,,CLR,0.00,VWS V14.01,2013-09-13 23:45:00,
2013-09-13 18:50:00,70.7,57.9,29.81,ENE,58,0.0,1.0,64,0.00,,CLR,0.00,VWS V14.01,2013-09-13 23:50:00,
2013-09-13 18:55:00,70.5,58.2,29.81,ENE,58,0.0,1.0,65,0.00,,CLR,0.00,VWS V14.01,2013-09-13 23:55:00,
2013-09-13 19:00:00,70.3,58.4,29.81,ENE,58,0.0,0.0,66,0.00,,CLR,0.00,VWS V14.01,2013-09-14 00:00:00,
2013-09-13 19:05:00,70.0,59.0,29.81,ENE,58,0.0,0.0,68,0.00,,CLR,0.00,VWS V14.01,2013-09-14 00:05:00,
2013-09-13 19:10:00,69.7,58.7,29.81,ENE,58,0.0,0.0,68,0.00,,CLR,0.00,VWS V14.01,2013-09-14 00:10:00,
2013-09-13 19:15:00,69.5,58.9,29.82,ENE,58,0.0,0.0,69,0.00,,CLR,0.00,VWS V14.01,2013-09-14 00:15:00,
2013-09-13 19:20:00,69.3,58.7,29.81,ENE,58,0.0,0.0,69,0.00,,CLR,0.00,VWS V14.01,2013-09-14 00:20:00,
2013-09-13 19:25:00,69.0,59.2,29.82,ENE,58,0.0,0.0,71,0.00,,CLR,0.00,VWS V14.01,2013-09-14 00:25:00,
2013-09-13 19:30:00,68.8,58.6,29.81,ENE,58,0.0,0.0,70,0.00,,CLR,0.00,VWS V14.01,2013-09-14 00:30:00,
2013-09-13 19:36:00,68.5,59.1,29.82,ENE,58,0.0,0.0,72,0.00,,CLR,0.00,VWS V14.01,2013-09-14 00:36:00,
2013-09-13 19:41:00,68.3,58.5,29.82,ENE,58,0.0,0.0,71,0.00,,CLR,0.00,VWS V14.01,2013-09-14 00:41:00,
2013-09-13 19:46:00,68.0,58.3,29.82,ENE,58,0.0,0.0,71,0.00,,CLR,0.00,VWS V14.01,2013-09-14 00:46:00,
2013-09-13 19:51:00,67.8,58.5,29.82,ENE,58,0.0,0.0,72,0.00,,CLR,0.00,VWS V14.01,2013-09-14 00:51:00,
2013-09-13 19:56:00,67.6,59.0,29.82,ENE,58,0.0,0.0,74,0.00,,CLR,0.00,VWS V14.01,2013-09-14 00:56:00,
2013-09-13 20:00:00,67.5,59.3,29.82,ENE,58,0.0,0.0,75,0.00,,CLR,0.00,VWS V14.01,2013-09-14 01:00:00,
2013-09-13 20:01:00,67.3,59.5,29.82,ENE,58,0.0,0.0,76,0.00,,CLR,0.00,VWS V14.01,2013-09-14 01:01:00,
2013-09-13 20:06:00,66.9,59.1,29.82,ENE,58,0.0,0.0,76,0.00,,CLR,0.00,VWS V14.01,2013-09-14 01:06:00,
2013-09-13 20:11:00,66.6,59.2,29.82,ENE,58,0.0,0.0,77,0.00,,CLR,0.00,VWS V14.01,2013-09-14 01:11:00,
2013-09-13 20:16:00,66.3,58.9,29.83,ENE,58,0.0,0.0,77,0.00,,CLR,0.00,VWS V14.01,2013-09-14 01:16:00,
2013-09-13 20:21:00,66.0,58.6,29.83,ENE,58,0.0,0.0,77,0.00,,CLR,0.00,VWS V14.01,2013-09-14 01:21:00,
2013-09-13 20:26:00,65.9,58.5,29.83,ENE,58,0.0,0.0,77,0.00,,CLR,0.00,VWS V14.01,2013-09-14 01:26:00,
2013-09-13 20:30:00,65.8,58.4,29.83,ENE,58,0.0,0.0,77,0.00,,CLR,0.00,VWS V14.01,2013-09-14 01:30:00,
2013-09-13 20:32:00,65.8,58.8,29.83,ENE,58,0.0,0.0,78,0.00,,CLR,0.00,VWS V14.01,2013-09-14 01:32:00,
2013-09-13 20:37:00,65.7,58.7,29.83,ENE,58,0.0,0.0,78,0.00,,CLR,0.00,VWS V14.01,2013-09-14 01:37:00,
2013-09-13 20:42:00,65.5,58.8,29.83,ENE,58,0.0,0.0,79,0.00,,CLR,0.00,VWS V14.01,2013-09-14 01:42:00,
2013-09-13 20:47:00,65.2,58.2,29.83,ENE,58,0.0,0.0,78,0.00,,CLR,0.00,VWS V14.01,2013-09-14 01:47:00,
2013-09-13 20:52:00,65.1,57.7,29.84,NE,52,0.0,0.0,77,0.00,,CLR,0.00,VWS V14.01,2013-09-14 01:52:00,
2013-09-13 20:57:00,65.0,57.6,29.84,NW,309,0.0,1.0,77,0.00,,CLR,0.00,VWS V14.01,2013-09-14 01:57:00,
2013-09-13 21:00:00,65.0,58.0,29.84,NW,309,0.0,1.0,78,0.00,,CLR,0.00,VWS V14.01,2013-09-14 02:00:00,
2013-09-13 21:02:00,65.0,58.0,29.84,NW,311,0.0,0.0,78,0.00,,CLR,0.00,VWS V14.01,2013-09-14 02:02:00,
2013-09-13 21:07:00,64.9,57.9,29.84,NW,311,0.0,0.0,78,0.00,,CLR,0.00,VWS V14.01,2013-09-14 02:07:00,
2013-09-13 21:12:00,64.9,57.9,29.84,NW,312,0.0,0.0,78,0.00,,CLR,0.00,VWS V14.01,2013-09-14 02:12:00,
2013-09-13 21:17:00,64.8,57.8,29.84,NNE,15,0.0,0.0,78,0.00,,CLR,0.00,VWS V14.01,2013-09-14 02:17:00,
2013-09-13 21:22:00,64.7,57.7,29.84,NNE,17,0.0,0.0,78,0.00,,CLR,0.00,VWS V14.01,2013-09-14 02:22:00,
2013-09-13 21:28:00,64.7,58.0,29.85,NNE,26,0.0,1.0,79,0.00,,CLR,0.00,VWS V14.01,2013-09-14 02:28:00,
2013-09-13 21:30:00,64.7,58.0,29.85,NNE,25,0.0,1.0,79,0.00,,CLR,0.00,VWS V14.01,2013-09-14 02:30:00,
2013-09-13 21:33:00,64.6,58.0,29.85,NNE,32,0.0,1.0,79,0.00,,CLR,0.00,VWS V14.01,2013-09-14 02:33:00,
2013-09-13 21:38:00,64.5,58.2,29.85,NNE,32,0.0,1.0,80,0.00,,CLR,0.00,VWS V14.01,2013-09-14 02:38:00,
2013-09-13 21:43:00,64.4,58.1,29.85,NNE,32,0.0,1.0,80,0.00,,CLR,0.00,VWS V14.01,2013-09-14 02:43:00,
2013-09-13 21:48:00,64.3,58.3,29.85,East,92,0.0,2.0,81,0.00,,CLR,0.00,VWS V14.01,2013-09-14 02:48:00,
2013-09-13 21:53:00,64.1,57.8,29.85,East,90,0.0,2.0,80,0.00,,CLR,0.00,VWS V14.01,2013-09-14 02:53:00,
2013-09-13 21:58:00,64.1,56.8,29.85,ESE,109,1.0,2.0,77,0.00,,CLR,0.00,VWS V14.01,2013-09-14 02:58:00,
2013-09-13 22:00:00,64.1,56.4,29.85,ESE,116,0.0,2.0,76,0.00,,CLR,0.00,VWS V14.01,2013-09-14 03:00:00,
2013-09-13 22:03:00,64.3,57.0,29.85,ESE,116,0.0,0.0,77,0.00,,CLR,0.00,VWS V14.01,2013-09-14 03:03:00,
2013-09-13 22:08:00,64.5,56.8,29.85,East,82,1.0,3.0,76,0.00,,CLR,0.00,VWS V14.01,2013-09-14 03:08:00,
2013-09-13 22:13:00,64.6,56.9,29.85,East,92,0.0,3.0,76,0.00,,CLR,0.00,VWS V14.01,2013-09-14 03:13:00,
2013-09-13 22:19:00,64.6,56.5,29.85,East,90,1.0,3.0,75,0.00,,CLR,0.00,VWS V14.01,2013-09-14 03:19:00,
2013-09-13 22:24:00,64.6,56.5,29.86,SE,133,0.0,3.0,75,0.00,,CLR,0.00,VWS V14.01,2013-09-14 03:24:00,
2013-09-13 22:29:00,64.5,56.8,29.86,East,98,0.0,4.0,76,0.00,,CLR,0.00,VWS V14.01,2013-09-14 03:29:00,
2013-09-13 22:30:00,64.5,56.8,29.86,East,98,0.0,4.0,76,0.00,,CLR,0.00,VWS V14.01,2013-09-14 03:30:00,
2013-09-13 22:34:00,64.4,56.7,29.86,SE,133,0.0,0.0,76,0.00,,CLR,0.00,VWS V14.01,2013-09-14 03:34:00,
2013-09-13 22:39:00,64.3,56.6,29.85,ENE,77,0.0,3.0,76,0.00,,CLR,0.00,VWS V14.01,2013-09-14 03:39:00,
2013-09-13 22:44:00,64.2,56.1,29.86,East,82,0.0,3.0,75,0.00,,CLR,0.00,VWS V14.01,2013-09-14 03:44:00,
2013-09-13 22:49:00,64.4,55.9,29.86,SE,145,0.0,5.0,74,0.00,,CLR,0.00,VWS V14.01,2013-09-14 03:49:00,
2013-09-13 22:54:00,64.5,56.0,29.86,SE,143,1.0,5.0,74,0.00,,CLR,0.00,VWS V14.01,2013-09-14 03:54:00,
2013-09-13 22:59:00,64.4,55.9,29.86,East,98,0.0,0.0,74,0.00,,CLR,0.00,VWS V14.01,2013-09-14 03:59:00,
2013-09-13 23:00:00,64.4,55.9,29.86,East,98,0.0,5.0,74,0.00,,CLR,0.00,VWS V14.01,2013-09-14 04:00:00,
2013-09-13 23:01:00,64.4,55.9,29.86,East,101,0.0,0.0,74,0.00,,CLR,0.00,VWS V14.01,2013-09-14 04:01:00,
2013-09-13 23:02:00,64.3,56.2,29.86,East,101,0.0,0.0,75,0.00,,CLR,0.00,VWS V14.01,2013-09-14 04:02:00,
2013-09-13 23:05:00,64.2,56.1,29.86,East,101,0.0,0.0,75,0.00,,CLR,0.00,VWS V14.01,2013-09-14 04:05:00,
2013-09-13 23:08:00,64.1,55.7,29.86,East,101,0.0,0.0,74,0.00,,CLR,0.00,VWS V14.01,2013-09-14 04:08:00,
2013-09-13 23:13:00,63.8,55.7,29.86,East,80,0.0,1.0,75,0.00,,CLR,0.00,VWS V14.01,2013-09-14 04:13:00,
2013-09-13 23:18:00,63.6,55.9,29.86,East,80,0.0,1.0,76,0.00,,CLR,0.00,VWS V14.01,2013-09-14 04:18:00,
2013-09-13 23:24:00,63.3,55.6,29.86,East,80,0.0,1.0,76,0.00,,CLR,0.00,VWS V14.01,2013-09-14 04:24:00,
2013-09-13 23:29:00,63.1,55.4,29.86,East,80,0.0,1.0,76,0.00,,CLR,0.00,VWS V14.01,2013-09-14 04:29:00,
2013-09-13 23:30:00,63.1,55.4,29.86,East,80,0.0,1.0,76,0.00,,CLR,0.00,VWS V14.01,2013-09-14 04:30:00,
2013-09-13 23:34:00,62.9,55.6,29.86,East,80,0.0,0.0,77,0.00,,CLR,0.00,VWS V14.01,2013-09-14 04:34:00,
2013-09-13 23:39:00,62.6,55.7,29.86,East,80,0.0,0.0,78,0.00,,CLR,0.00,VWS V14.01,2013-09-14 04:39:00,
2013-09-13 23:44:00,62.3,55.4,29.86,East,101,0.0,1.0,78,0.00,,CLR,0.00,VWS V14.01,2013-09-14 04:44:00,
2013-09-13 23:49:00,62.1,55.2,29.86,East,101,0.0,1.0,78,0.00,,CLR,0.00,VWS V14.01,2013-09-14 04:49:00,
2013-09-13 23:54:00,61.9,55.3,29.86,East,101,0.0,1.0,79,0.00,,CLR,0.00,VWS V14.01,2013-09-14 04:54:00,
2013-09-13 23:59:00,61.6,55.4,29.87,East,101,0.0,1.0,80,0.00,,CLR,0.00,VWS V14.01,2013-09-14 04:59:00,